TimeMDT,TemperatureF,Dew PointF,Humidity,Sea Level PressureIn,VisibilityMPH,Wind Direction,Wind SpeedMPH,Gust SpeedMPH,PrecipitationIn,Events,Conditions,WindDirDegrees,DateUTC
12:15 AM,23.0,23.0,100,30.12,0.2,SE,6.9,-,N/A,Snow,Light Snow,140,2012-10-25 06:15:00
12:35 AM,23.0,23.0,100,30.13,0.2,SE,8.1,-,N/A,Snow,Light Snow,140,2012-10-25 06:35:00
12:55 AM,23.0,23.0,100,30.13,0.2,SE,6.9,-,N/A,Fog,Light Freezing Fog,140,2012-10-25 06:55:00
1:15 AM,23.0,21.2,93,30.13,0.2,SE,6.9,-,N/A,Fog,Light Freezing Fog,140,2012-10-25 07:15:00
1:35 AM,23.0,21.2,93,30.13,0.2,SE,4.6,-,N/A,Fog,Light Freezing Fog,140,2012-10-25 07:35:00
1:55 AM,23.0,21.2,93,30.13,0.2,SE,4.6,-,N/A,Fog,Light Freezing Fog,140,2012-10-25 07:55:00
2:15 AM,23.0,21.2,93,30.14,0.2,SE,5.8,-,N/A,Fog,Light Freezing Fog,140,2012-10-25 08:15:00
2:35 AM,23.0,21.2,93,30.14,10.0,SE,9.2,-,N/A,,Mostly Cloudy,140,2012-10-25 08:35:00
2:55 AM,23.0,21.2,93,30.14,10.0,SE,10.4,-,N/A,,Mostly Cloudy,130,2012-10-25 08:55:00
3:15 AM,23.0,21.2,93,30.14,10.0,SE,9.2,-,N/A,,Overcast,140,2012-10-25 09:15:00
3:35 AM,23.0,21.2,93,30.14,10.0,SE,12.7,-,N/A,,Overcast,130,2012-10-25 09:35:00
3:55 AM,23.0,21.2,93,30.14,10.0,SE,11.5,-,N/A,,Overcast,130,2012-10-25 09:55:00
4:15 AM,23.0,21.2,93,30.14,10.0,SE,11.5,-,N/A,,Overcast,130,2012-10-25 10:15:00
4:35 AM,23.0,21.2,93,30.13,10.0,SE,12.7,-,N/A,,Overcast,130,2012-10-25 10:35:00
4:55 AM,21.2,21.2,100,30.13,10.0,SE,13.8,-,N/A,,Overcast,130,2012-10-25 10:55:00
5:15 AM,21.2,21.2,100,30.13,10.0,SE,13.8,-,N/A,,Overcast,140,2012-10-25 11:15:00
5:35 AM,21.2,19.4,93,30.14,10.0,SE,11.5,-,N/A,,Overcast,130,2012-10-25 11:35:00
5:55 AM,21.2,19.4,93,30.14,10.0,SE,10.4,-,N/A,,Overcast,130,2012-10-25 11:55:00
6:15 AM,21.2,19.4,93,30.14,10.0,SE,10.4,-,N/A,,Overcast,130,2012-10-25 12:15:00
6:35 AM,21.2,19.4,93,30.14,10.0,SE,11.5,-,N/A,,Mostly Cloudy,130,2012-10-25 12:35:00
6:55 AM,21.2,19.4,93,30.14,10.0,ESE,12.7,-,N/A,,Overcast,120,2012-10-25 12:55:00
7:15 AM,21.2,19.4,93,30.13,10.0,ESE,12.7,-,N/A,,Overcast,110,2012-10-25 13:15:00
7:35 AM,21.2,17.6,86,30.14,10.0,ESE,11.5,-,N/A,,Overcast,120,2012-10-25 13:35:00
8:35 AM,23.0,17.6,80,30.14,10.0,ESE,11.5,-,N/A,,Overcast,120,2012-10-25 14:35:00
9:15 AM,21.2,19.4,93,30.14,0.8,SE,16.1,-,N/A,,Overcast,140,2012-10-25 15:15:00
9:35 AM,21.2,21.2,100,30.14,0.2,ESE,15.0,-,N/A,Snow,Light Snow,120,2012-10-25 15:35:00
9:55 AM,21.2,19.4,93,30.13,0.8,ESE,17.3,-,N/A,,Mist,120,2012-10-25 15:55:00
10:15 AM,21.2,19.4,93,30.13,10.0,ESE,17.3,-,N/A,,Scattered Clouds,120,2012-10-25 16:15:00
10:35 AM,23.0,19.4,86,30.14,10.0,SE,18.4,-,N/A,,Scattered Clouds,130,2012-10-25 16:35:00
10:55 AM,23.0,19.4,86,30.14,10.0,ESE,17.3,-,N/A,,Mostly Cloudy,120,2012-10-25 16:55:00
11:15 AM,24.8,21.2,86,30.15,10.0,ESE,17.3,-,N/A,,Overcast,120,2012-10-25 17:15:00
11:35 AM,26.6,21.2,80,30.16,10.0,ESE,12.7,-,N/A,,Overcast,120,2012-10-25 17:35:00
12:15 PM,24.8,21.2,86,30.16,7.0,SE,10.4,-,N/A,Snow,Light Snow,130,2012-10-25 18:15:00
12:35 PM,23.0,21.2,93,30.16,7.0,ESE,9.2,-,N/A,Snow,Light Snow,110,2012-10-25 18:35:00
12:55 PM,24.8,23.0,93,30.16,1.8,East,5.8,-,N/A,Snow,Light Snow,90,2012-10-25 18:55:00
1:15 PM,24.8,23.0,93,30.16,1.5,SE,6.9,-,N/A,Snow,Light Snow,130,2012-10-25 19:15:00
1:35 PM,26.6,23.0,86,30.16,3.0,ESE,3.5,-,N/A,Snow,Light Snow,110,2012-10-25 19:35:00
2:15 PM,24.8,23.0,93,30.16,0.2,North,3.5,-,N/A,Snow,Light Snow,10,2012-10-25 20:15:00
2:35 PM,23.0,23.0,100,30.16,0.2,NNW,3.5,-,N/A,Snow,Snow,340,2012-10-25 20:35:00
2:55 PM,24.8,23.0,93,30.16,0.2,NNW,9.2,-,N/A,Snow,Heavy Snow,340,2012-10-25 20:55:00
3:15 PM,23.0,23.0,100,30.16,0.2,North,11.5,-,N/A,Snow,Snow,360,2012-10-25 21:15:00
3:35 PM,24.8,23.0,93,30.16,0.2,NNW,13.8,-,N/A,Snow,Snow,340,2012-10-25 21:35:00
3:55 PM,23.0,23.0,100,30.17,0.2,NNW,13.8,-,N/A,Snow,Snow,330,2012-10-25 21:55:00
4:15 PM,23.0,23.0,100,30.18,0.2,NNW,15.0,-,N/A,Snow,Snow,330,2012-10-25 22:15:00
4:35 PM,23.0,23.0,100,30.18,0.2,NNW,17.3,-,N/A,Snow,Light Snow,330,2012-10-25 22:35:00
5:15 PM,23.0,21.2,93,30.20,-9999.0,NNW,19.6,-,N/A,,Overcast,330,2012-10-25 23:15:00
5:35 PM,23.0,21.2,93,30.20,-9999.0,NW,21.9,-,N/A,,Overcast,320,2012-10-25 23:35:00
5:55 PM,23.0,21.2,93,30.21,-9999.0,NNW,23.0,-,N/A,,Overcast,330,2012-10-25 23:55:00
6:15 PM,21.2,21.2,100,30.21,-9999.0,North,-9999.0,-,N/A,,Overcast,0,2012-10-26 00:15:00
6:35 PM,21.2,19.4,93,30.22,-9999.0,North,-9999.0,-,N/A,,Overcast,0,2012-10-26 00:35:00
7:15 PM,21.2,19.4,93,30.24,-9999.0,NNW,23.0,-,N/A,,Overcast,330,2012-10-26 01:15:00
7:35 PM,21.2,19.4,93,30.24,-9999.0,NNW,25.3,-,N/A,,Overcast,330,2012-10-26 01:35:00
8:15 PM,19.4,19.4,100,30.26,-9999.0,NNW,24.2,-,N/A,,Overcast,330,2012-10-26 02:15:00
8:35 PM,19.4,19.4,100,30.27,-9999.0,NW,23.0,-,N/A,,Overcast,320,2012-10-26 02:35:00
9:15 PM,19.4,19.4,100,30.28,-9999.0,NNW,21.9,-,N/A,,Overcast,330,2012-10-26 03:15:00
10:15 PM,19.4,17.6,93,30.30,-9999.0,NW,21.9,-,N/A,,Overcast,320,2012-10-26 04:15:00
10:55 PM,19.4,17.6,93,30.31,-9999.0,NW,21.9,-,N/A,,Overcast,320,2012-10-26 04:55:00
11:35 PM,19.4,17.6,93,30.32,-9999.0,NW,17.3,-,N/A,,Overcast,320,2012-10-26 05:35:00
11:55 PM,19.4,17.6,93,30.33,-9999.0,NW,17.3,-,N/A,,Overcast,320,2012-10-26 05:55:00